Temp
5 6 6 7 11 12 13 14 15 16 16 17 17 17 17 18 18 18 18 18 18 18 18 18 18 18 19 19 19 19 19 19 19 19 19 19 19 20 20 19 20 20 19
5 6 7 7 10 11 12 13 14 15 15 16 17 17 17 17 17 17 17 17 17 18 18 18 18 19 19 19 19 19 19 19 19 19 19 19 19 20 20 19 19 20 20
5 5 6 7 9 10 11 12 13 14 14 15 15 16 16 17 17 17 17 17 17 18 18 18 18 19 19 19 19 19 19 19 19 19 19 19 19 19 19 19 19 19 20
4 5 4 6 8 9 10 11 11 12 13 13 14 15 15 16 16 17 17 17 17 18 18 18 18 18 18 19 19 19 19 19 20 20 20 19 19 19 19 19 19 19 19
4 3 2 5 7 8 9 9 10 11 11 13 12 13 14 14 15 15 16 16 17 17 18 18 18 18 18 18 18 19 19 19 19 20 20 19 20 20 20 19 19 19 19
4 3 1 3 5 6 7 8 9 9 9 10 11 11 13 14 14 14 15 15 16 16 17 17 18 18 18 18 18 18 19 19 19 20 20 20 20 20 20 20 20 20 19
3 3 2 1 2 4 6 6 7 7 8 8 8 9 11 12 14 14 14 15 15 16 16 16 16 17 17 18 18 18 18 19 19 19 20 20 20 20 20 20 20 20 20
3 3 3 4 1 2 3 4 5 5 6 6 6 7 10 13 14 13 14 14 14 15 15 15 16 16 17 17 17 17 18 18 19 19 19 20 20 20 20 20 20 20 20
2 3 3 5 5 5 2 2 3 4 4 4 7 10 11 12 13 13 14 13 13 15 15 15 15 16 16 16 17 17 17 18 18 19 19 19 19 19 19 20 20 20 19
2 2 3 4 5 5 5 3 3 3 5 8 9 10 11 11 11 11 12 12 12 14 15 15 15 16 16 16 16 16 17 18 18 18 18 19 19 19 19 19 19 19 19
1 1 2 3 4 5 4 5 6 6 7 8 9 9 10 10 11 10 10 10 11 12 13 14 15 15 16 16 16 17 17 17 18 18 18 18 19 19 19 19 19 19 19
-0 0 1 2 3 4 4 5 5 5 5 6 6 8 8 8 8 9 9 10 11 11 12 13 13 14 15 15 16 16 16 16 17 17 18 18 18 18 19 19 19 19 19
-2 -1 -0 1 2 3 3 3 4 3 4 4 4 5 6 7 8 8 8 9 9 10 11 11 12 12 12 12 13 14 15 16 16 17 18 18 18 18 18 18 18 18 18
-2 -2 -1 0 1 1 2 2 2 2 2 2 2 3 4 4 5 5 6 6 7 7 8 8 9 9 10 12 11 11 13 14 15 16 17 18 18 18 18 17 18 18 18
-2 -2 -1 -1 0 1 1 1 1 1 1 0 1 1 2 2 2 3 3 3 4 5 5 6 7 8 9 10 10 12 12 12 15 15 16 17 18 18 17 17 17 17 17
-3 -2 -2 -2 -1 -0 -0 0 0 -0 0 0 0 0 0 0 0 1 1 1 2 2 3 4 4 6 7 8 9 10 12 12 12 14 14 16 16 17 17 17 17 17 16
-3 -3 -2 -2 -1 -1 -1 -1 -1 -2 -1 -1 -1 -0 -0 -0 0 -0 -0 0 -0 1 2 3 4 5 6 6 8 10 10 11 12 12 13 14 15 16 16 17 17 16 16
-3 -3 -3 -2 -2 -2 -2 -2 -3 -2 -2 -2 -2 -2 -1 -1 -1 -1 -1 -1 -1 -1 -0 1 1 2 3 3 5 8 9 10 12 13 13 13 14 15 16 16 16 16 16
-4 -3 -3 -3 -3 -3 -3 -3 -3 -2 -2 -3 -2 -2 -2 -2 -2 -2 -1 -1 -1 -1 -1 -2 -1 -2 -1 -0 3 6 8 10 11 13 13 13 14 15 15 16 16 15 15
-4 -4 -4 -4 -3 -2 -2 -2 -2 -2 -2 -3 -4 -4 -4 -4 -4 -4 -4 -3 -3 -3 -3 -2 -2 -2 -3 -4 1 3 8 10 11 10 11 13 13 13 15 15 15 15 15
-5 -5 -5 -4 -3 -2 -1 -0 -1 -3 -4 -4 -4 -5 -5 -5 -5 -5 -5 -4 -5 -5 -6 -5 -7 -4 -4 -4 -3 -1 5 7 7 7 8 9 10 11 12 12 13 15 14
-5 -6 -5 -5 -5 -5 -4 -4 -4 -4 -5 -5 -5 -5 -5 -5 -5 -5 -5 -5 -5 -5 -6 -6 -8 -8 -7 -6 -6 -4 0 4 6 6 6 6 8 8 9 10 11 12 13
-6 -6 -5 -5 -5 -5 -4 -4 -4 -5 -6 -5 -4 -4 -5 -5 -5 -5 -5 -5 -5 -5 -6 -7 -8 -9 -8 -7 -6 -4 -1 0 -2 3 3 4 5 6 6 7 8 10 11
-5 -6 -6 -6 -6 -6 -5 -4 -4 -5 -6 -8 -7 -6 -5 -5 -5 -5 -6 -6 -6 -6 -6 -7 -8 -10 -9 -8 -7 -5 -6 -5 -2 -1 0 1 3 3 3 6 6 8 8
-5 -6 -6 -6 -6 -6 -6 -6 -6 -6 -6 -6 -6 -5 -5 -5 -5 -6 -6 -6 -7 -7 -7 -7 -8 -10 -9 -9 -8 -8 -7 -5 -4 -2 -1 -0 -0 0 2 3 4 6 9
-6 -6 -7 -7 -7 -7 -7 -6 -6 -5 -5 -5 -4 -4 -5 -5 -6 -6 -6 -7 -7 -7 -7 -7 -7 -8 -9 -10 -9 -8 -7 -6 -5 -5 -4 -3 -3 -1 -0 1 3 6 7
Height
879 876 871 867 867 862 857 854 851 849 846 844 843 841 839 838 837 837 835 834 832 831 829 828 829 828 825 826 824 824 823 823 823 822 822 823 822 821 821 821 821 820 820
882 878 873 870 869 865 860 857 853 851 849 847 845 843 842 841 840 837 835 834 833 833 831 832 831 827 827 828 827 826 826 826 825 824 824 825 824 825 824 825 824 822 822
881 878 874 873 870 866 862 859 856 853 851 849 847 846 844 843 842 841 840 839 837 835 834 834 832 831 831 830 827 827 827 827 827 825 825 825 826 825 826 825 826 825 824
882 879 875 875 872 868 864 861 858 856 853 851 849 847 846 844 843 842 841 840 838 836 833 834 833 832 832 830 829 829 828 827 827 827 826 826 826 826 826 827 827 828 826
882 879 877 877 873 870 866 863 860 858 855 853 851 849 847 846 844 843 841 840 839 838 837 835 834 834 833 832 830 832 829 828 829 828 826 826 826 826 827 827 828 828 828
880 879 877 878 875 872 869 866 863 861 858 856 853 851 849 847 845 843 842 841 841 840 840 838 836 834 833 831 831 830 829 829 829 828 827 827 826 826 827 828 828 827 829
881 879 877 876 875 873 871 868 865 862 860 857 854 852 849 848 847 845 844 842 841 840 839 839 838 837 835 833 832 832 830 830 830 828 827 827 826 826 826 827 828 828 829
881 879 877 873 872 872 871 869 867 864 862 858 855 853 849 848 847 847 846 844 842 841 840 839 837 836 835 834 833 832 831 831 829 829 827 827 827 826 827 828 828 829 829
882 880 878 875 872 869 868 868 866 864 861 858 855 853 851 849 848 847 846 844 842 841 840 838 837 836 835 834 833 831 830 830 829 827 827 826 827 827 827 828 828 828 829
884 882 880 876 873 869 869 867 864 862 860 858 856 855 853 851 849 848 846 844 843 841 840 838 837 836 835 833 832 831 830 829 828 827 826 826 826 827 827 827 827 827 828
886 883 881 878 874 872 871 868 866 863 862 860 858 855 854 851 850 849 847 846 843 841 840 839 837 836 834 833 832 831 829 829 828 827 826 826 826 827 826 826 826 826 826
887 885 884 880 877 876 873 871 869 867 865 862 860 858 855 854 852 850 848 846 844 842 840 838 837 836 834 831 830 829 829 828 828 827 826 826 826 826 826 825 825 825 825
892 890 886 884 881 878 875 874 871 869 867 865 863 860 859 856 853 851 849 845 843 841 839 837 836 835 834 832 830 829 828 827 826 827 826 825 825 825 824 824 824 823 823
894 892 889 887 884 880 879 876 873 872 871 869 866 863 860 857 856 854 852 849 846 843 841 839 837 836 835 834 832 829 828 826 825 825 825 825 824 823 823 823 823 822 821
894 892 890 889 886 883 881 878 876 875 874 872 868 866 863 861 859 858 856 852 850 847 844 842 839 837 833 831 831 829 827 825 824 823 823 823 823 822 822 822 821 820 820
895 895 893 891 888 885 883 881 880 880 877 874 871 869 867 865 863 861 858 855 852 849 847 845 841 837 833 831 829 827 826 824 823 821 822 822 821 820 820 819 820 819 818
897 895 892 891 889 887 885 885 884 882 879 876 874 872 870 867 865 863 860 857 854 852 849 846 842 839 835 831 828 825 823 822 820 820 818 819 819 818 818 817 817 817 816
896 894 893 892 891 889 888 886 884 883 880 878 876 874 872 869 867 864 861 858 857 854 851 847 843 838 834 831 827 824 821 819 817 816 815 815 816 816 815 815 815 814 813
896 895 894 893 892 890 888 886 884 883 880 879 878 876 874 872 870 867 865 863 860 856 854 850 846 842 836 832 827 823 819 816 814 812 812 812 812 812 812 812 812 811 810
895 895 894 893 891 889 887 886 884 883 882 881 879 877 876 874 872 869 866 864 861 859 856 853 849 845 841 836 826 821 817 813 810 809 809 808 809 809 808 808 807 806 805
896 895 894 891 888 886 884 882 882 882 882 882 881 879 878 875 873 870 867 865 862 860 859 855 851 846 841 836 827 816 811 811 808 809 809 806 805 804 804 803 802 801 800
895 894 892 890 889 887 885 884 883 883 883 882 882 880 879 877 874 871 869 866 864 861 860 858 855 851 848 846 843 834 822 811 809 808 809 808 807 802 800 798 797 797 797
893 891 889 889 888 888 886 886 885 884 884 883 881 880 879 877 875 872 870 868 866 864 862 861 859 858 856 852 850 850 840 832 827 810 808 809 807 804 800 794 793 792 791
889 888 888 888 888 888 887 885 884 883 883 883 882 881 880 877 875 874 872 870 869 867 866 864 863 862 862 859 854 854 855 853 841 820 809 807 805 802 799 792 791 789 787
884 886 886 887 888 889 888 886 885 884 882 881 881 881 879 878 877 875 874 872 870 869 867 866 864 863 863 862 860 856 852 849 844 839 822 808 799 802 794 792 790 787 781
882 883 884 886 889 889 888 887 885 883 881 880 879 878 878 878 877 876 875 874 872 869 868 866 863 862 860 859 859 857 855 852 847 845 834 828 815 792 795 788 782 782 777
Wind_Speed
25 28 27 29 27 27 27 25 23 20 19 20 22 19 18 17 18 18 17 17 17 17 16 15 14 14 14 13 12 12 12 13 12 13 11 10 10 11 9 8 8 11 11
22 22 26 28 25 26 26 25 25 23 20 18 18 20 20 18 18 18 19 18 17 16 15 14 13 14 13 12 12 11 10 10 11 11 10 8 8 8 5 5 5 7 9
20 17 24 26 24 25 26 26 25 24 24 23 21 17 19 21 19 17 17 16 16 16 15 13 13 11 11 11 11 10 8 7 7 7 8 8 6 7 6 4 3 3 7
17 15 23 22 23 25 25 26 26 25 24 24 24 22 19 18 17 22 17 16 16 17 17 15 13 11 10 10 10 8 8 7 6 4 5 6 5 4 5 5 4 1 1
15 17 20 21 21 24 24 25 25 25 24 20 23 22 22 23 20 19 18 18 16 16 17 15 13 12 11 10 10 8 7 5 5 4 3 5 7 3 3 4 4 2 3
16 18 18 20 20 22 23 24 24 24 24 24 25 22 20 18 15 14 11 15 18 16 15 15 14 13 12 11 10 9 9 8 5 4 2 5 6 1 2 4 5 2 5
17 18 19 18 19 20 23 23 24 24 24 25 25 23 20 18 15 14 11 9 14 13 17 14 15 14 13 12 11 11 9 8 8 7 5 5 5 1 4 4 6 2 5
19 20 21 21 20 20 22 22 24 24 25 25 26 24 21 15 14 14 12 10 10 10 9 13 13 14 13 13 13 12 11 10 8 9 8 7 7 3 4 5 7 6 6
20 21 22 22 21 24 22 23 24 25 26 26 27 25 24 21 18 15 11 11 15 11 8 9 9 8 10 12 12 13 12 11 11 10 10 8 5 4 6 7 7 8 11
21 22 24 23 23 24 24 24 24 25 26 27 26 25 24 21 22 21 19 17 16 12 9 11 11 10 9 9 10 12 11 10 11 11 9 8 8 7 7 9 9 9 11
21 24 24 24 25 24 26 26 26 27 26 27 27 27 24 24 23 23 25 24 21 16 14 12 9 11 12 10 9 13 11 12 12 12 10 9 8 8 9 9 11 11 12
22 23 24 24 25 24 25 25 26 27 27 29 29 28 28 28 27 25 25 25 23 24 20 15 15 14 14 16 14 12 12 13 15 14 10 9 9 10 11 11 11 12 13
16 20 22 23 23 24 25 25 26 28 28 30 30 30 29 29 29 29 29 30 28 27 26 24 20 18 20 20 19 15 14 15 15 15 14 12 11 11 12 12 14 14 15
15 17 19 21 21 23 23 25 25 26 27 30 30 31 32 32 31 32 32 32 32 32 30 29 27 24 21 18 20 20 17 15 16 15 14 14 16 16 16 14 15 15 15
14 15 17 18 20 21 22 23 24 25 26 27 29 30 31 32 32 31 32 32 32 31 32 32 30 29 27 24 21 20 22 19 16 16 18 16 19 18 18 19 17 18 16
10 12 13 16 18 18 20 21 22 22 23 25 27 28 29 30 31 31 32 32 32 33 32 32 32 32 30 29 28 23 22 24 21 17 18 21 18 19 23 23 21 18 18
8 10 12 14 15 16 17 18 20 21 22 24 25 25 27 27 28 30 31 32 34 34 33 32 32 31 32 31 29 29 27 24 23 22 17 22 24 22 21 22 23 23 22
6 8 10 12 13 14 13 15 18 18 23 24 25 25 26 26 27 29 31 32 32 33 34 35 35 35 34 33 35 34 33 29 25 23 24 21 24 24 24 24 27 27 26
4 6 7 9 11 12 11 13 14 18 23 23 24 24 25 25 25 25 26 27 29 32 34 36 35 33 34 35 38 35 31 31 29 25 26 26 26 28 28 30 33 34 32
2 3 5 7 9 11 11 11 14 17 20 23 23 24 24 25 25 26 27 29 30 31 33 33 33 34 25 35 33 32 32 27 22 22 24 27 34 32 33 33 36 37 37
2 0 3 6 10 12 13 13 13 15 18 23 23 23 24 24 24 26 28 29 31 31 32 32 30 33 27 38 21 30 28 26 8 12 22 19 25 31 36 38 36 37 38
5 1 3 7 9 12 13 13 9 10 13 17 21 23 23 24 24 24 27 29 30 31 32 33 31 27 17 26 16 14 6 10 12 37 23 30 28 27 27 32 35 35 37
7 3 2 4 6 8 10 11 11 10 11 16 21 22 23 23 23 23 24 26 27 28 30 29 27 22 20 17 21 6 5 5 25 19 34 25 33 28 30 27 29 35 37
8 4 1 2 3 5 8 10 13 15 12 14 18 20 21 23 23 23 23 23 23 24 25 25 21 18 16 18 12 9 12 14 4 9 21 35 17 36 35 41 33 37 34
11 8 4 1 1 2 5 7 10 11 13 13 15 17 20 21 21 21 21 21 21 21 22 23 23 16 12 14 13 17 17 16 19 10 11 25 39 30 37 29 39 34 38
14 12 7 5 6 3 3 4 6 9 11 12 14 17 19 20 21 21 21 20 19 19 20 21 21 20 17 12 12 13 13 9 18 15 13 21 30 38 36 35 36 43 40
Wind_Direction
344 351 360 357 2 9 16 28 36 39 41 44 40 44 44 41 39 38 38 35 35 41 44 42 40 40 41 34 36 38 44 47 56 63 68 63 62 61 70 76 82 84 89
333 350 14 5 5 12 19 28 35 39 41 44 43 41 41 43 42 37 31 30 30 31 36 35 32 38 38 39 40 36 40 44 54 61 62 57 52 37 47 75 70 86 95
348 357 22 9 9 15 21 28 33 38 38 42 43 43 44 40 42 40 34 29 27 28 28 29 34 35 33 31 37 35 32 32 36 49 52 41 37 30 36 42 48 57 90
354 3 25 9 14 18 22 27 31 32 35 36 40 42 43 42 42 38 42 31 26 26 21 18 21 24 25 23 24 29 30 24 11 13 27 28 18 8 2 355 352 288 83
9 11 21 12 18 22 26 28 30 32 32 33 35 38 39 38 39 39 40 41 33 24 11 12 11 10 8 11 13 5 12 22 7 352 18 12 342 307 341 332 338 254 219
21 18 19 16 22 26 29 29 31 32 33 32 31 36 39 40 37 37 42 44 37 35 22 15 9 4 359 357 354 353 353 351 340 338 319 346 341 240 309 317 321 296 206
30 29 26 20 26 30 32 33 33 32 33 33 32 32 34 34 40 32 28 33 33 35 31 17 8 4 359 353 347 339 337 335 331 327 299 311 344 234 297 312 300 264 186
40 38 37 38 32 31 34 35 35 35 35 35 33 34 38 34 36 29 20 22 30 22 24 24 22 0 357 353 346 338 333 327 323 319 313 297 325 250 256 281 286 238 212
46 44 43 46 47 47 40 32 34 34 35 36 36 41 41 38 41 36 27 18 20 10 6 12 4 18 2 348 344 339 332 327 322 318 315 302 300 279 263 279 274 247 225
49 47 45 47 48 50 44 41 41 37 39 40 40 41 40 37 36 32 29 23 19 11 355 5 5 3 5 4 358 346 330 329 323 314 306 302 266 278 272 275 277 264 242
50 47 45 46 48 49 47 48 47 45 44 41 38 38 35 32 30 27 29 27 23 17 14 5 351 356 350 347 353 354 338 334 323 321 306 298 285 279 283 269 270 266 253
41 41 42 44 47 48 48 47 46 45 42 39 36 36 35 32 30 26 24 22 19 17 13 10 358 349 344 347 344 345 349 332 319 312 304 300 284 289 288 291 281 270 259
43 44 43 43 46 47 46 45 45 44 39 37 34 32 32 30 28 25 22 18 14 12 10 5 3 356 348 343 339 333 332 330 328 316 298 294 288 296 295 291 285 276 263
47 46 46 45 48 49 47 47 45 43 39 37 34 32 30 29 27 25 22 19 17 14 9 6 1 356 349 335 338 329 320 315 320 316 300 293 287 283 286 296 298 282 267
49 46 45 45 49 50 49 49 47 44 38 37 35 33 31 29 27 24 22 19 18 14 12 7 359 354 351 344 335 327 322 309 303 307 302 294 289 287 291 295 299 295 284
53 49 48 47 48 53 52 51 49 46 40 39 36 33 31 29 27 25 22 19 17 13 10 6 3 357 351 346 338 330 318 311 307 294 300 291 284 280 282 288 293 298 288
52 47 47 45 43 50 55 54 53 49 44 42 39 35 33 29 27 25 21 19 16 11 7 4 1 357 353 348 339 334 325 312 305 295 287 290 285 282 279 281 286 295 292
50 44 42 43 42 47 55 54 55 51 46 43 38 36 33 28 25 23 20 18 14 11 8 5 2 357 356 350 344 335 328 319 308 299 288 281 283 280 280 284 283 287 291
68 46 38 36 39 47 57 60 59 51 45 40 36 34 31 29 28 27 24 19 13 11 9 6 3 2 356 350 342 337 333 323 311 302 287 277 276 278 281 279 281 288 287
101 50 39 38 41 45 55 65 58 49 46 38 36 34 30 28 27 26 24 20 17 15 12 8 3 359 3 353 343 340 334 333 320 309 299 284 281 276 279 278 279 282 283
183 65 36 39 38 38 45 48 45 47 43 40 37 33 29 27 25 23 21 19 17 17 13 10 4 1 3 2 354 340 342 337 318 356 353 346 306 287 287 283 280 277 280
208 201 44 41 38 41 45 47 55 54 43 39 38 36 31 28 24 23 19 17 14 12 11 11 9 4 353 9 354 325 342 343 337 325 329 330 332 332 320 292 284 280 275
204 189 69 50 48 47 54 58 64 62 51 35 33 35 31 29 26 24 20 16 13 11 9 9 5 8 354 349 14 351 345 332 330 318 323 331 327 323 333 331 314 290 283
200 194 151 75 60 53 56 55 57 60 57 35 29 30 31 28 25 23 19 15 13 10 6 5 359 2 358 345 356 358 329 308 323 318 324 321 320 321 320 321 324 319 300
198 196 185 175 167 91 74 66 59 57 52 42 32 28 28 28 24 21 16 12 10 7 4 1 0 0 351 338 332 330 327 320 286 301 310 321 317 316 321 317 316 315 317
198 197 194 202 213 185 126 84 63 52 44 32 26 22 19 18 18 15 12 9 5 1 359 356 355 354 350 337 330 321 314 314 310 306 305 307 304 311 312 310 310 311 315